Home > Weather > Vasai-Virar > Past weeks

Flag for India Past Weather in Vasai-Virar, Maharashtra, India — Yesterday and Last 2 Weeks

Now
81 °F

Partly cloudy.


Feels Like: 87 °F
Forecast: 80 / 85 °F
Wind: 5 mph from Southwest

Location: Mumbai / Santacruz

Current Time: Jul 26, 2016 at 1:38:18 AM

Latest Report: Jul 26, 2016 at 1:00 AM


Visibility: 2 mi

Pressure: 29.68 "Hg

Humidity: 89%

Dew Point: 77 °F

Location of Vasai-VirarLocation

Past Weather in Vasai-Virar — Graph

°F

Vasai-Virar Temperature Yesterday

Maximum temperature yesterday: 84 °F (at 10:30 AM)
Minimum temperature yesterday: 79 °F (at 3:30 AM)
Average temperature yesterday: 82 °F

High & Low Weather Summary for the Past Weeks

 TemperatureHumidityPressure
High86 °F (Jul 12, 12:30 PM)100% (Jul 13, 4:30 AM)29.83 "Hg (Jul 13, 4:30 AM)
Low75 °F (Jul 21, 3:30 PM)70% (Jul 16, 12:30 PM)29.56 "Hg (Jul 11, 2:00 AM)
Average82 °F87%29.68 "Hg
* Reported Jul 11 12:30 AM — Jul 26 12:30 AM, Vasai-Virar, Weather by CustomWeather, © 2016

Note: Actual official high and low records may vary slightly from our data, if they occured in-between our weather recording intervals... More about our weather records

Advertising

Vasai-Virar Weather History for the Previous 24 Hours

Scroll right to see more
 ConditionsComfort  
Time TempWeatherWind HumidityBarometerVisibility
12:30 AM
Tue, Jul 26
81 °FPartly cloudy.6 mph89%29.71 "Hg2 mi
12:00 AM81 °FPartly cloudy.9 mph84%29.71 "Hg2 mi
11:30 PM
Mon, Jul 25
82 °FPartly cloudy.5 mph89%29.71 "Hg2 mi
11:00 PM82 °FPartly cloudy.3 mph84%29.71 "Hg2 mi
10:30 PM82 °FPartly cloudy.3 mph84%29.71 "Hg2 mi
10:00 PM82 °FPartly cloudy.3 mph89%29.71 "Hg2 mi
9:30 PM82 °FPartly cloudy.5 mph84%29.71 "Hg2 mi
9:00 PM82 °FPartly cloudy.5 mph84%29.68 "Hg2 mi
8:30 PM82 °FPartly cloudy.3 mph84%29.68 "Hg2 mi
8:00 PM82 °FPartly cloudy.5 mph79%29.68 "Hg2 mi
7:30 PM84 °FBroken clouds.3 mph74%29.65 "Hg2 mi
7:00 PM82 °FBroken clouds.5 mph79%29.65 "Hg2 mi
6:30 PM82 °FBroken clouds.5 mph84%29.65 "Hg2 mi
6:00 PM82 °FBroken clouds.7 mph79%29.62 "Hg2 mi
5:30 PM84 °FBroken clouds.8 mph79%29.62 "Hg2 mi
5:00 PM84 °FBroken clouds.7 mph74%29.62 "Hg2 mi
4:30 PM84 °FBroken clouds.9 mph74%29.62 "Hg2 mi
4:00 PM84 °FBroken clouds.8 mph79%29.65 "Hg2 mi
3:30 PM84 °FBroken clouds.9 mph79%29.65 "Hg2 mi
3:00 PM84 °FBroken clouds.7 mph79%29.65 "Hg2 mi
2:30 PM82 °FBroken clouds.8 mph84%29.65 "Hg2 mi
2:00 PM82 °FBroken clouds.7 mph79%29.68 "Hg2 mi
1:30 PM82 °FBroken clouds.7 mph84%29.68 "Hg2 mi
1:00 PM82 °FBroken clouds.12 mph89%29.68 "Hg2 mi
12:30 PM84 °FBroken clouds.10 mph84%29.68 "Hg2 mi
12:00 PM84 °FBroken clouds.9 mph84%29.68 "Hg3 mi
11:30 AM84 °FBroken clouds.8 mph84%29.71 "Hg3 mi
11:00 AM84 °FBroken clouds.7 mph84%29.71 "Hg2 mi
10:30 AM84 °FBroken clouds.5 mph84%29.71 "Hg2 mi
10:00 AM82 °FBroken clouds.6 mph89%29.71 "Hg2 mi
9:30 AM82 °FBroken clouds.5 mph89%29.68 "Hg2 mi
9:00 AM81 °FBroken clouds.5 mph94%29.68 "Hg1 mi
8:30 AM81 °FBroken clouds.3 mph94%29.68 "Hg1 mi
8:00 AM81 °FScattered showers. Broken clouds.6 mph94%29.68 "Hg1 mi
7:30 AM81 °FScattered showers. Broken clouds.5 mph94%29.68 "Hg1 mi
7:00 AM81 °FScattered showers. Broken clouds.6 mph94%29.65 "Hg1 mi
6:30 AM81 °FScattered showers. Partly cloudy.3 mph94%29.65 "Hg1 mi
6:00 AM81 °FFog.3 mph94%29.65 "Hg1 mi
5:30 AM81 °FPartly cloudy.5 mph94%29.65 "Hg1 mi
5:00 AM81 °FPartly cloudy.6 mph94%29.62 "Hg1 mi
4:30 AM81 °FPartly cloudy.5 mph94%29.65 "Hg1 mi
4:00 AM81 °FPartly cloudy.5 mph94%29.65 "Hg1 mi
3:30 AM79 °FLight rain. Partly cloudy.5 mph94%29.65 "Hg1 mi
3:00 AM81 °FRain. Partly cloudy.7 mph94%29.65 "Hg1 mi
2:30 AM81 °FPartly cloudy.7 mph94%29.65 "Hg1 mi
2:00 AM81 °FPartly cloudy.6 mph94%29.65 "Hg1 mi
1:30 AM81 °FPartly cloudy.6 mph94%29.68 "Hg1 mi
1:00 AM81 °FPartly cloudy.5 mph94%29.68 "Hg1 mi
Weather by CustomWeather, © 2016

See weather overviewHow to use our weather pages